[[{"header":{"parameterUnit":"m.s-1","parameterCategory":1,"la1":30.2991,"la2":30.254,"lo1":-89.0895,"lo2":-89.0444,"dy":0.0017,"dx":0.0017,"nx":28,"ny":28,"refTime":"2024-02-17T09:00:00:Z","depth":0,"parameterNumber":2,"parameterNumberName":"U-component_of_WINDS"},"data":[0,0,0,0,0,0,0,0,0,0,0,0,0,0,0,0,0,0,0,0,0,0,0,0,0,0,0,0,0,0,0,0,0,0,0,0,0,0,0,0,0,0,0,0,0,0,0,0,0,0,0,0,0,0,0,0,0,0,1.9392,1.9393,0,1.9459,1.946,1.946,1.9442,1.9441,1.944,1.9438,1.9509,1.9512,1.9515,0,0,0,0,0,0,0,0,0,0,0,0,0,1.925,1.9253,1.9392,1.9393,1.9394,1.9459,1.946,1.9461,1.9443,1.9441,1.9439,1.9438,1.9508,1.9511,1.9515,0,0,0,0,0,0,0,0,0,0,0,0,0,1.9314,1.9254,1.9392,1.9393,1.9393,1.9459,1.946,1.9461,1.9443,1.9441,1.9439,1.9437,1.9506,1.9511,1.9515,1.9585,0,0,1.953,1.9532,0,0,0,0,0,0,0,0,1.9311,1.9319,1.9392,1.9393,1.9394,1.944,1.9435,1.9502,1.9444,1.9424,1.9438,1.9436,1.9488,1.9494,1.9511,1.9588,1.9591,1.953,1.9533,1.9535,1.9536,0,0,0,0,0,0,0,1.9306,1.9316,1.9418,1.9393,1.9394,1.939,1.9397,1.9448,1.9466,1.9426,1.9425,1.9433,1.9488,1.9506,1.9512,1.9592,1.953,1.9534,1.9537,1.9539,1.9729,1.9731,0,0,0,0,0,0,1.9301,1.9313,1.9416,1.942,1.9346,1.9394,1.9402,1.9427,1.9466,1.947,1.9434,1.9432,1.9499,1.9507,1.9515,1.9598,1.9535,1.9539,1.9542,1.9727,1.973,1.9732,0,0,0,0,0,0,1.9298,1.931,1.9414,1.9366,1.9379,1.9399,1.9428,1.943,1.9448,1.9472,1.9476,1.945,1.9498,1.9508,1.9567,1.96,1.9541,1.9546,1.9724,1.9728,1.9731,1.9765,0,0,0,0,0,0,1.9294,1.9309,1.9335,1.9367,1.9382,1.9465,1.943,1.9432,1.9456,1.9453,1.9488,1.9491,1.9497,1.956,1.9572,1.9606,1.9549,1.9721,1.9726,1.973,1.9761,1.977,1.9777,0,0,0,0,0,1.9289,1.9343,1.9337,1.9349,1.9415,1.9467,1.9475,1.948,1.9459,1.9485,1.9501,1.949,1.9595,1.9567,1.9579,1.9615,1.9719,1.9725,1.973,1.9758,1.9768,1.9776,0,0,0,0,0,0,1.9315,1.9347,1.9341,1.9406,1.9434,1.9464,1.9497,1.9491,1.9525,1.9521,1.9526,1.9534,1.9595,1.9611,1.9579,1.9684,1.9654,1.9662,1.9671,1.9681,1.9688,1.9683,1.9553,0,0,0,0,0,1.9328,1.9368,1.9393,1.9449,1.9463,1.9478,1.9501,1.9502,1.9531,1.9543,1.9563,1.9592,1.9631,1.9657,1.9694,1.9764,1.9771,1.9794,1.9802,1.9808,1.9815,1.9853,1.9863,1.9749,1.9749,1.9749,0,0,1.9357,1.9379,1.9403,1.9455,1.9476,1.9517,1.9488,1.9532,1.9563,1.955,1.9607,1.9622,1.9655,1.972,1.9749,1.9735,1.9848,1.9814,1.9819,1.9823,1.9859,1.987,1.9879,1.9752,1.9752,1.9751,0,0,1.9429,1.945,1.9498,1.952,1.9553,1.9562,1.9574,1.9605,1.9614,1.9671,1.9663,1.9699,1.9767,1.979,1.9811,1.9892,1.9883,1.9904,1.9943,1.998,1.9989,1.9997,2.0026,2.0036,1.9911,1.9911,1.9911,0,1.946,1.9521,1.9524,1.9569,1.9592,1.9582,1.9631,1.9652,1.9696,1.9712,1.9696,1.978,1.9801,1.9871,1.9891,1.9908,1.9922,1.99,1.9988,1.9996,2.0003,2.0031,2.0042,1.9913,1.9913,1.9912,1.9912,0,1.9557,1.9599,1.9635,1.9676,1.9703,1.975,1.9761,1.9788,1.9787,1.9799,1.9857,1.9882,1.9924,1.9941,1.9941,2.0011,2.0001,1.9986,1.9956,2.0016,2.0042,2.0053,1.9916,1.9915,1.9915,1.9914,0,0,1.9648,1.9691,1.9704,1.9722,1.9758,1.9791,1.9837,1.9878,1.9901,1.9931,1.9971,2.0028,2.0014,2.0038,2.004,2.0072,2.0135,2.0053,2.0054,2.0067,2.0214,2.0225,2.0237,2.0129,2.0131,2.0133,2.0211,0,1.9723,1.9805,1.9809,1.9884,1.9923,1.9913,1.9954,1.998,1.9992,2.0027,2.004,2.0081,2.0059,2.0074,2.0105,2.012,2.0164,2.0115,2.0166,2.0168,2.0158,2.025,2.0262,2.0335,2.0221,2.0223,2.0224,0,1.9822,1.9855,1.9933,1.9962,1.9979,2.0015,2.0053,2.0087,2.0116,2.0123,2.0149,2.0146,2.0195,2.0163,2.0229,2.0196,2.0217,2.0228,2.023,2.0236,2.02,2.0258,2.0358,2.0369,2.024,2.0239,2.0238,0,1.9881,1.9944,1.9999,2.0016,2.0051,2.0077,2.0093,2.0121,2.0145,2.0178,2.0194,2.0232,2.0253,2.0283,2.0291,2.0267,2.0358,2.0327,2.0365,2.0364,2.0384,2.0383,2.0489,2.0398,2.0398,2.0397,2.0397,0,1.9964,2.0012,2.0026,2.006,2.0113,2.0118,2.0171,2.0186,2.021,2.0247,2.0241,2.0276,2.0284,2.0321,2.0327,2.0381,2.0391,2.0398,2.0399,2.0398,2.0397,2.0412,2.0407,2.04,2.04,2.0399,2.0399,0,2.0039,2.005,2.0109,2.0138,2.0146,2.0184,2.0209,2.0242,2.0252,2.0299,2.031,2.0327,2.037,2.0381,2.0432,2.0436,2.05,2.0496,2.049,2.049,2.0527,2.0523,2.0646,2.0662,2.0561,2.0562,2.0563,0,2.0091,2.0128,2.0161,2.0184,2.0202,2.024,2.0265,2.0271,2.0297,2.0333,2.0361,2.0403,2.0436,2.0505,2.0522,2.0561,2.0558,2.0599,2.0564,2.0562,2.0559,2.0556,2.056,2.0605,2.0606,2.0607,2.0608,0,2.0184,2.0187,2.0222,2.026,2.0289,2.0319,2.0347,2.0367,2.0377,2.0407,2.0449,2.0476,2.0527,2.0568,2.0608,2.0625,2.0618,2.0619,2.0629,2.0629,2.0624,2.0627,2.0508,2.0616,2.0615,2.0614,2.0614,2.0614,2.0249,2.0281,2.0309,2.0348,2.037,2.0397,2.0429,2.0443,2.0479,2.0521,2.0523,2.057,2.0598,2.065,2.0669,2.0706,2.0694,2.0709,2.0713,2.0717,2.072,2.0618,2.0713,2.0713,2.0713,2.0712,2.0712,0,2.034,2.0358,2.0394,2.0434,2.0465,2.0455,2.0487,2.0513,2.0554,2.0581,2.0614,2.0664,2.0704,2.0724,2.0764,2.0789,2.0787,2.08,2.0798,2.0802,2.0729,2.0715,2.08,2.08,2.08,2.08,2.08,2.08,2.0392,2.0445,2.0452,2.0517,2.0534,2.0579,2.0598,2.0623,2.0644,2.0699,2.0732,2.0745,2.0769,2.0811,2.0847,2.0852,2.0867,2.0881,2.0884,2.0816,2.0807,2.0798,2.0786,2.0884,2.0884,2.0954,2.0955,2.0955]},{"header":{"parameterUnit":"m.s-1","parameterCategory":1,"la1":30.2991,"la2":30.254,"lo1":-89.0895,"lo2":-89.0444,"dy":0.0017,"dx":0.0017,"nx":28,"ny":28,"refTime":"2024-02-17T09:00:00:Z","depth":0,"parameterNumber":3,"parameterNumberName":"V-component_of_WINDS"},"data":[0,0,0,0,0,0,0,0,0,0,0,0,0,0,0,0,0,0,0,0,0,0,0,0,0,0,0,0,0,0,0,0,0,0,0,0,0,0,0,0,0,0,0,0,0,0,0,0,0,0,0,0,0,0,0,0,0,0,-0.0352,-0.0351,0,-0.031,-0.031,-0.0309,-0.0317,-0.0318,-0.0318,-0.0319,-0.0275,-0.0274,-0.0272,0,0,0,0,0,0,0,0,0,0,0,0,0,-0.044,-0.0438,-0.0352,-0.0351,-0.0351,-0.031,-0.031,-0.0309,-0.0317,-0.0318,-0.0319,-0.032,-0.0276,-0.0274,-0.0272,0,0,0,0,0,0,0,0,0,0,0,0,0,-0.04,-0.0438,-0.0352,-0.035,-0.0349,-0.031,-0.0309,-0.0309,-0.0317,-0.0318,-0.0319,-0.032,-0.0277,-0.0274,-0.0271,-0.0231,0,0,-0.0263,-0.0262,0,0,0,0,0,0,0,0,-0.0402,-0.0397,-0.0351,-0.035,-0.0349,-0.032,-0.0324,-0.0283,-0.0316,-0.0329,-0.0319,-0.0321,-0.0289,-0.0286,-0.0275,-0.0229,-0.0227,-0.0263,-0.0261,-0.026,-0.0259,0,0,0,0,0,0,0,-0.0405,-0.0399,-0.0335,-0.035,-0.0349,-0.0351,-0.0347,-0.0317,-0.0303,-0.0328,-0.0328,-0.0323,-0.0289,-0.0278,-0.0274,-0.0227,-0.0263,-0.026,-0.0258,-0.0257,-0.0148,-0.0147,0,0,0,0,0,0,-0.0409,-0.0401,-0.0337,-0.0334,-0.0379,-0.0349,-0.0344,-0.0328,-0.0304,-0.0301,-0.0323,-0.0324,-0.0282,-0.0277,-0.0273,-0.0226,-0.026,-0.0257,-0.0255,-0.015,-0.0148,-0.0147,0,0,0,0,0,0,-0.041,-0.0403,-0.0338,-0.0368,-0.036,-0.0346,-0.0328,-0.0327,-0.0316,-0.03,-0.0297,-0.0313,-0.0283,-0.0277,-0.0242,-0.0224,-0.0256,-0.0253,-0.0151,-0.0149,-0.0147,-0.013,0,0,0,0,0,0,-0.0413,-0.0403,-0.0388,-0.0367,-0.0358,-0.0308,-0.0327,-0.0325,-0.0311,-0.0312,-0.029,-0.0288,-0.0283,-0.0246,-0.0239,-0.0221,-0.0251,-0.0153,-0.015,-0.0148,-0.0132,-0.0128,-0.0124,0,0,0,0,0,-0.0416,-0.0384,-0.0387,-0.0379,-0.0338,-0.0307,-0.0302,-0.0297,-0.0309,-0.0294,-0.0284,-0.0289,-0.0227,-0.0243,-0.0235,-0.0215,-0.0154,-0.0151,-0.0148,-0.0134,-0.0129,-0.0124,0,0,0,0,0,0,-0.0402,-0.0381,-0.0384,-0.0344,-0.0328,-0.0308,-0.0289,-0.0292,-0.0271,-0.0273,-0.0268,-0.0263,-0.0229,-0.0218,-0.0236,-0.0176,-0.0192,-0.0188,-0.0184,-0.0179,-0.0175,-0.0178,-0.0249,0,0,0,0,0,-0.0394,-0.0371,-0.0354,-0.032,-0.0312,-0.0302,-0.0288,-0.0286,-0.0268,-0.0261,-0.0249,-0.0231,-0.0208,-0.0193,-0.0171,-0.0131,-0.0127,-0.0114,-0.011,-0.0107,-0.0103,-0.0083,-0.0077,-0.0138,-0.0138,-0.0138,0,0,-0.0378,-0.0364,-0.0349,-0.0317,-0.0304,-0.028,-0.0296,-0.0269,-0.0252,-0.0257,-0.0224,-0.0215,-0.0195,-0.0158,-0.0141,-0.0149,-0.0086,-0.0103,-0.0101,-0.0099,-0.008,-0.0074,-0.0069,-0.0136,-0.0136,-0.0137,0,0,-0.0336,-0.0323,-0.0294,-0.0281,-0.0261,-0.0255,-0.0248,-0.0229,-0.0223,-0.019,-0.0194,-0.0173,-0.0133,-0.012,-0.0108,-0.0063,-0.0067,-0.0056,-0.0035,-0.0016,-0.0011,-0.0007,0.0008,0.0014,-0.0052,-0.0052,-0.0052,0,-0.0318,-0.0282,-0.0279,-0.0253,-0.0239,-0.0244,-0.0216,-0.0203,-0.0177,-0.0168,-0.0177,-0.0128,-0.0115,-0.0076,-0.0065,-0.0055,-0.0048,-0.0058,-0.0012,-0.0008,-0.0004,0.0011,0.0016,-0.0051,-0.0051,-0.0052,-0.0052,0,-0.0262,-0.0237,-0.0217,-0.0192,-0.0177,-0.0149,-0.0142,-0.0127,-0.0127,-0.012,-0.0088,-0.0072,-0.0048,-0.0039,-0.0038,0.0,-0.0005,-0.0013,-0.0029,0.0003,0.0017,0.0022,-0.005,-0.005,-0.005,-0.0051,0,0,-0.0209,-0.0184,-0.0177,-0.0167,-0.0146,-0.0127,-0.0101,-0.0077,-0.0065,-0.0047,-0.0025,0.0007,-0.0,0.0013,0.0015,0.0033,0.0065,0.0023,0.0023,0.0029,0.0107,0.0112,0.0119,0.0063,0.0064,0.0064,0.0105,0,-0.0166,-0.0119,-0.0117,-0.0075,-0.0053,-0.0058,-0.0035,-0.0021,-0.0014,0.0005,0.0013,0.0036,0.0024,0.0032,0.0049,0.0058,0.0081,0.0055,0.0082,0.0083,0.0077,0.0126,0.0132,0.017,0.011,0.0111,0.0112,0,-0.0109,-0.0091,-0.0047,-0.0031,-0.0022,-0.0001,0.0019,0.0038,0.0054,0.0058,0.0072,0.0071,0.0097,0.008,0.0115,0.0098,0.0109,0.0114,0.0116,0.0119,0.01,0.0129,0.0182,0.0188,0.012,0.012,0.0119,0,-0.0076,-0.004,-0.001,-0.0001,0.0019,0.0033,0.0042,0.0057,0.007,0.0088,0.0096,0.0117,0.0128,0.0144,0.0148,0.0136,0.0183,0.0167,0.0186,0.0186,0.0197,0.0196,0.0252,0.0205,0.0205,0.0204,0.0204,0,-0.0028,-0.0001,0.0005,0.0024,0.0053,0.0056,0.0085,0.0092,0.0105,0.0125,0.0122,0.014,0.0145,0.0164,0.0167,0.0195,0.0201,0.0204,0.0204,0.0204,0.0204,0.0212,0.0209,0.0206,0.0206,0.0205,0.0205,0,0.0014,0.002,0.0052,0.0067,0.0072,0.0093,0.0105,0.0123,0.0128,0.0153,0.0159,0.0168,0.019,0.0195,0.0222,0.0224,0.0257,0.0256,0.0252,0.0252,0.0271,0.0269,0.0333,0.0341,0.0289,0.029,0.029,0,0.0044,0.0064,0.0081,0.0094,0.0103,0.0123,0.0136,0.0139,0.0153,0.0171,0.0186,0.0208,0.0225,0.0261,0.0269,0.0289,0.0288,0.0309,0.0291,0.0289,0.0287,0.0286,0.0287,0.0312,0.0313,0.0313,0.0314,0,0.0096,0.0098,0.0116,0.0136,0.0151,0.0166,0.0181,0.0191,0.0196,0.0211,0.0233,0.0247,0.0273,0.0294,0.0314,0.0322,0.0319,0.0319,0.0325,0.0324,0.0321,0.0322,0.0261,0.0318,0.0317,0.0317,0.0317,0.0317,0.0133,0.015,0.0164,0.0185,0.0195,0.0209,0.0226,0.0233,0.0251,0.0272,0.0273,0.0296,0.031,0.0336,0.0346,0.0364,0.0358,0.0366,0.0368,0.037,0.0371,0.0318,0.0368,0.0368,0.0368,0.0368,0.0367,0,0.0184,0.0193,0.0211,0.0231,0.0247,0.0241,0.0257,0.027,0.0291,0.0304,0.0321,0.0346,0.0366,0.0375,0.0395,0.0408,0.0406,0.0413,0.0412,0.0413,0.0376,0.0369,0.0413,0.0413,0.0413,0.0413,0.0413,0.0413,0.0213,0.0241,0.0244,0.0277,0.0285,0.0308,0.0317,0.0329,0.0339,0.0367,0.0383,0.0389,0.04,0.042,0.0438,0.044,0.0447,0.0454,0.0456,0.0421,0.0416,0.0412,0.0405,0.0456,0.0456,0.0491,0.0492,0.0492]}]]